Reecon Whale — 9HA2885 — position and weather

sailwx.info

Track history (hours):
 
Tides and Currents Weather Stations Pressure Air Temp Water Temp Dewpoint Dewpoint Depression Visibility Wind Speed Wind Dir Waves Ship Positions

Reecon Whale

Last reported at 2014-Oct-20 10:19 UTC. Time now 2014-Oct-20 11:14 UTC.
Position N 36°10' W 005°25'.

Length 145 m; draft 6.7 m.

Type: Ship. MMSI: 256579000.

Date/timePositionNaut miles runAvg speedWind from/ knotsBaromVisibWave heightAir tempDewpointWater temp
2014-Oct-20 10:19N 36°10' W 005°25'0 0.0
2014-Oct-20 09:31N 36°10' W 005°25'3 1.1
2014-Oct-20 07:15N 36°08' W 005°26'0 0.0
2014-Oct-20 06:15N 36°08' W 005°26'0 0.0
2014-Oct-20 05:33N 36°08' W 005°26'0 0.0
2014-Oct-20 04:27N 36°08' W 005°26'0 0.0
2014-Oct-20 03:27N 36°08' W 005°26'0 0.0
2014-Oct-20 02:24N 36°08' W 005°26'0 0.0
2014-Oct-20 00:24N 36°08' W 005°26'0 0.0
2014-Oct-19 23:33N 36°08' W 005°26'0 0.0
2014-Oct-19 22:27N 36°08' W 005°26'0 0.0
2014-Oct-19 21:30N 36°08' W 005°26'0 0.0
2014-Oct-19 20:33N 36°08' W 005°26'0 0.0
2014-Oct-19 19:30N 36°08' W 005°26'0 0.2
2014-Oct-19 18:33N 36°08' W 005°26'7 6.7
2014-Oct-19 17:33N 36°02' W 005°23'8512.0
2014-Oct-19 10:27N 36°05' W 007°08'1112.3
2014-Oct-19 09:33N 36°09' W 007°21'1212.0
2014-Oct-19 08:33N 36°12' W 007°35'1212.3
2014-Oct-19 07:33N 36°15' W 007°50'1413.2
2014-Oct-19 06:32N 36°19' W 008°06'1413.7
2014-Oct-19 05:31N 36°22' W 008°23'1413.8
2014-Oct-19 04:32N 36°26' W 008°39'1413.9
2014-Oct-19 03:33N 36°29' W 008°56'1514.0
2014-Oct-19 02:30N 36°33' W 009°13'1313.9
2014-Oct-19 01:33N 36°41' W 009°26'1814.0
2014-Oct-19 00:16N 36°58' W 009°36'1013.8
2014-Oct-18 23:33N 37°07' W 009°35'1413.5
2014-Oct-18 22:32N 37°21' W 009°33'1312.9
2014-Oct-18 21:33N 37°33' W 009°31'1212.5
2014-Oct-18 20:33N 37°46' W 009°30'1211.7
2014-Oct-18 19:33N 37°58' W 009°29'1212.0
2014-Oct-18 18:33N 38°10' W 009°26'1212.2
2014-Oct-18 17:33N 38°22' W 009°25'1211.7
2014-Oct-18 16:33N 38°33' W 009°24'13 9.4
2014-Oct-18 15:08N 38°42' W 009°10'0 0.0
2014-Oct-17 08:29N 38°42' W 009°10'5 5.3
2014-Oct-17 07:32N 38°41' W 009°16'60 9.7
2014-Oct-17 01:19N 39°39' W 009°39'75 1.7
2014-Oct-15 05:19N 38°24' W 009°46'911.3
2014-Oct-15 04:32N 38°16' W 009°43'1111.4
2014-Oct-15 03:33N 38°05' W 009°40'1211.6
2014-Oct-15 02:33N 37°53' W 009°36'1111.5
2014-Oct-15 01:33N 37°42' W 009°33'1111.4
2014-Oct-15 00:33N 37°31' W 009°30'1211.5
2014-Oct-14 23:30N 37°19' W 009°27'2411.4
2014-Oct-14 21:22N 36°56' W 009°19'1310.5
2014-Oct-14 20:06N 36°45' W 009°09'610.7
2014-Oct-14 19:32N 36°43' W 009°02'1010.4
2014-Oct-14 18:33N 36°39' W 008°50'1010.2
2014-Oct-14 17:33N 36°36' W 008°38'1010.4
2014-Oct-14 16:33N 36°33' W 008°26'14310.2
2014-Oct-14 02:32N 35°59' W 005°33'8 7.8
2014-Oct-14 01:34N 36°02' W 005°25'6 5.9
2014-Oct-14 00:33N 36°08' W 005°25'0 0.0
2014-Oct-13 23:31N 36°08' W 005°25'0 0.0
2014-Oct-13 22:31N 36°08' W 005°25'0 0.0
2014-Oct-13 21:31N 36°08' W 005°25'0 0.0
2014-Oct-13 20:31N 36°08' W 005°25'0 0.0
2014-Oct-13 19:31N 36°08' W 005°25'0 0.0
2014-Oct-13 18:31N 36°08' W 005°25'0 0.0
2014-Oct-13 17:31N 36°08' W 005°25'  
2014-Oct-10 22:32N 36°07' W 005°13'  
Track history (hours):
 
Tides and Currents Weather Stations Pressure Air Temp Water Temp Dewpoint Dewpoint Depression Visibility Wind Speed Wind Dir Waves Ship Positions

Reecon Whale

Last reported at 2014-Oct-20 10:19 UTC. Time now 2014-Oct-20 11:14 UTC.
Position N 36°10' W 005°25'.

Length 145 m; draft 6.7 m.

Type: Ship. MMSI: 256579000.

Date/timePositionNaut miles runAvg speedWind from/ knotsBaromVisibWave heightAir tempDewpointWater temp
2014-Oct-20 10:19N 36°10' W 005°25'0 0.0
2014-Oct-20 09:31N 36°10' W 005°25'3 1.1
2014-Oct-20 07:15N 36°08' W 005°26'0 0.0
2014-Oct-20 06:15N 36°08' W 005°26'0 0.0
2014-Oct-20 05:33N 36°08' W 005°26'0 0.0
2014-Oct-20 04:27N 36°08' W 005°26'0 0.0
2014-Oct-20 03:27N 36°08' W 005°26'0 0.0
2014-Oct-20 02:24N 36°08' W 005°26'0 0.0
2014-Oct-20 00:24N 36°08' W 005°26'0 0.0
2014-Oct-19 23:33N 36°08' W 005°26'0 0.0
2014-Oct-19 22:27N 36°08' W 005°26'0 0.0
2014-Oct-19 21:30N 36°08' W 005°26'0 0.0
2014-Oct-19 20:33N 36°08' W 005°26'0 0.0
2014-Oct-19 19:30N 36°08' W 005°26'0 0.2
2014-Oct-19 18:33N 36°08' W 005°26'7 6.7
2014-Oct-19 17:33N 36°02' W 005°23'8512.0
2014-Oct-19 10:27N 36°05' W 007°08'1112.3
2014-Oct-19 09:33N 36°09' W 007°21'1212.0
2014-Oct-19 08:33N 36°12' W 007°35'1212.3
2014-Oct-19 07:33N 36°15' W 007°50'1413.2
2014-Oct-19 06:32N 36°19' W 008°06'1413.7
2014-Oct-19 05:31N 36°22' W 008°23'1413.8
2014-Oct-19 04:32N 36°26' W 008°39'1413.9
2014-Oct-19 03:33N 36°29' W 008°56'1514.0
2014-Oct-19 02:30N 36°33' W 009°13'1313.9
2014-Oct-19 01:33N 36°41' W 009°26'1814.0
2014-Oct-19 00:16N 36°58' W 009°36'1013.8
2014-Oct-18 23:33N 37°07' W 009°35'1413.5
2014-Oct-18 22:32N 37°21' W 009°33'1312.9
2014-Oct-18 21:33N 37°33' W 009°31'1212.5
2014-Oct-18 20:33N 37°46' W 009°30'1211.7
2014-Oct-18 19:33N 37°58' W 009°29'1212.0
2014-Oct-18 18:33N 38°10' W 009°26'1212.2
2014-Oct-18 17:33N 38°22' W 009°25'1211.7
2014-Oct-18 16:33N 38°33' W 009°24'13 9.4
2014-Oct-18 15:08N 38°42' W 009°10'0 0.0
2014-Oct-17 08:29N 38°42' W 009°10'5 5.3
2014-Oct-17 07:32N 38°41' W 009°16'60 9.7
2014-Oct-17 01:19N 39°39' W 009°39'75 1.7
2014-Oct-15 05:19N 38°24' W 009°46'911.3
2014-Oct-15 04:32N 38°16' W 009°43'1111.4
2014-Oct-15 03:33N 38°05' W 009°40'1211.6
2014-Oct-15 02:33N 37°53' W 009°36'1111.5
2014-Oct-15 01:33N 37°42' W 009°33'1111.4
2014-Oct-15 00:33N 37°31' W 009°30'1211.5
2014-Oct-14 23:30N 37°19' W 009°27'2411.4
2014-Oct-14 21:22N 36°56' W 009°19'1310.5
2014-Oct-14 20:06N 36°45' W 009°09'610.7
2014-Oct-14 19:32N 36°43' W 009°02'1010.4
2014-Oct-14 18:33N 36°39' W 008°50'1010.2
2014-Oct-14 17:33N 36°36' W 008°38'1010.4
2014-Oct-14 16:33N 36°33' W 008°26'14310.2
2014-Oct-14 02:32N 35°59' W 005°33'8 7.8
2014-Oct-14 01:34N 36°02' W 005°25'6 5.9
2014-Oct-14 00:33N 36°08' W 005°25'0 0.0
2014-Oct-13 23:31N 36°08' W 005°25'0 0.0
2014-Oct-13 22:31N 36°08' W 005°25'0 0.0
2014-Oct-13 21:31N 36°08' W 005°25'0 0.0
2014-Oct-13 20:31N 36°08' W 005°25'0 0.0
2014-Oct-13 19:31N 36°08' W 005°25'0 0.0
2014-Oct-13 18:31N 36°08' W 005°25'0 0.0
2014-Oct-13 17:31N 36°08' W 005°25'  
2014-Oct-10 22:32N 36°07' W 005°13'  

Dump ship's entire track history